Hourly Data Report for December 27, 2016

TORONTO CITY
ONTARIO

43°40'00.000" N
79°24'00.000" W
112.50 m
6158355
71508
XTO

Download Data

Hourly Data (December 2016)
Hourly Data Report for December 27, 2016
TIME
LST
Temp Definition
°C
Dew Point Definition
°C
Rel Hum Definition
%
Precip. Amount Definition
mm

Wind Dir Definition
10's deg

Wind Spd Definition
km/h
Visibility Definition
km
Stn Press Definition
kPa
Hmdx Definition


Wind Chill Definition


Weather Definition


00:00 8.8 2.7 65 0.0 LegendMM LegendMM   99.17     LegendNANA
01:00 8.5 2.7 67 0.0 LegendMM LegendMM   99.19     LegendNANA
02:00 6.3 -2.0 56 0.0 LegendMM LegendMM   99.34     LegendNANA
03:00 4.9 -2.7 58 0.0 LegendMM LegendMM   99.43     LegendNANA
04:00 3.4 -2.9 63 0.0 LegendMM LegendMM   99.46     LegendNANA
05:00 3.3 -2.7 65 0.0 LegendMM LegendMM   99.56     LegendNANA
06:00 2.2 -3.5 66 0.0 LegendMM LegendMM   99.66     LegendNANA
07:00 1.7 -4.1 65 0.0 LegendMM LegendMM   99.75     LegendNANA
08:00 1.2 -4.3 67 0.0 LegendMM LegendMM   99.82     LegendNANA
09:00 0.9 -4.4 68 0.0 LegendMM LegendMM   99.87     LegendNANA
10:00 0.8 -4.2 69 0.0 LegendMM LegendMM   99.94     LegendNANA
11:00 0.9 -4.0 70 0.0 LegendMM LegendMM   99.98     LegendNANA
12:00 0.5 -4.3 70 0.0 LegendMM LegendMM   99.99     LegendNANA
13:00 0.3 -3.9 73 0.0 LegendMM LegendMM   100.00     LegendNANA
14:00 0.2 -4.0 73 0.0 LegendMM LegendMM   99.97     LegendNANA
15:00 -0.1 -3.3 79 0.0 LegendMM LegendMM   99.95     LegendNANA
16:00 -0.1 -3.3 79 0.0 LegendMM LegendMM   100.00     LegendNANA
17:00 0.3 -4.4 71 0.0 LegendMM LegendMM   100.04     LegendNANA
18:00 -0.1 -4.7 71 0.0 LegendMM LegendMM   100.07     LegendNANA
19:00 -0.6 -3.3 82 0.0 LegendMM LegendMM   100.10     LegendNANA
20:00 -0.9 -2.5 89 0.2 LegendMM LegendMM   100.13     LegendNANA
21:00 -1.0 -2.8 88 0.0 LegendMM LegendMM   100.13     LegendNANA
22:00 -0.8 -4.8 74 0.0 LegendMM LegendMM   100.19     LegendNANA
23:00 -0.9 -5.7 70 0.3 LegendMM LegendMM   100.22     LegendNANA

Notes on Data Quality.

Legend

  • E = Estimated
  • M = Missing
  • NA = Not Available*
  • [empty] = Indicates an unobserved value
Date modified: